Weather in Sukpay

Russia / Khabarovsk Krai     47˚59′57″N   136˚47′14″E
temp.,
°C
wind,
m/s
gust,
m/s
humid.,
%
clouds,
%
prec.,
mm/h
press.,
hPa
HPBL,
m
16 january, sat
sat1601:00−21˚ene1194100 0.0 102020
04:00−22˚nne1193100 0.0 101820
07:00−22˚nw0194100 0.0 101820
10:00−22˚wnw119597 0.0 101942
13:00−18˚wnw228653 0.0 1019490
16:00−20˚nw229276 0.1 1018364
19:00−25˚wnw11100100 0.1 102220
22:00−27˚s11100100 0.1 102319
17 january, sun
sun1701:00−27˚s1199100 0.1 102323
04:00−28˚s1299100 0.1 102227
07:00−29˚s1299100 0.0 102225
10:00−27˚s119695 0.0 102275
13:00−20˚sw248383 0.0 1020554
16:00−20˚wsw138892 0.0 1018654
19:00−23˚sse1197100 0.1 102022
22:00−23˚sse1198100 0.1 102026
18 january, mon
mon1801:00−23˚sse1198100 0.1 101936
04:00−27˚se119883 0.1 101819
07:00−29˚ese11964 0.0 101819
10:00−27˚e119211 0.0 101663
13:00−19˚e1281100 0.0 1013296
16:00−18˚ene1277100 0.0 1012505
19:00−21˚nnw2299100 0.1 101337
22:00−24˚wnw2299100 0.2 101650
19 january, tue
tue1901:00−27˚wnw2299100 0.0 101729
04:00−31˚sw1210093 0.1 102019
07:00−32˚ssw2299100 0.0 102231
10:00−28˚ssw2595100 0.1 1024310
13:00−26˚sw3689100 0.0 1025599
16:00−25˚sw388999 0.1 1026690
19:00−29˚ssw249798 0.0 1030116
22:00−30˚ssw349799 0.1 1032110
20 january, wed
wed2001:00−31˚s2497100 0.0 103187
04:00−31˚s229668 0.0 103246
07:00−30˚s239232 0.0 103146
10:00−26˚s248762 0.0 1030170
13:00−20˚sw397592 0.0 1025616
16:00−19˚sw389396 0.3 1024765
19:00−22˚wsw1299100 0.3 102439
22:00−24˚sw1298100 0.4 102535